Regional Weather Roundup
Issued by NWS

Home | Current Version | Previous Version | Text Only | Print | Product List | Glossary On
Versions: 1 2 3 4 5 6 7 8 9 10 11 12 13 14 15 16 17 18 19 20 21 22 23 24 25 26 27 28 29 30 31 32 33 34 35 36 37 38 39 40 41 42 43 44 45 46 47 48 49 50
000
ASUS46 KLOX 282312
RWRCA

SOUTHERN CALIFORNIA WEATHER ROUNDUP
NATIONAL WEATHER SERVICE OXNARD CALIFORNIA
400 PM PDT SAT MAR 28 2015

NOTE: "FAIR" INDICATES FEW OR NO CLOUDS BELOW 12,000 FEET WITH NO
SIGNIFICANT WEATHER AND/OR OBSTRUCTIONS TO VISIBILITY.

  -  STATIONS PRECEEDED BY AN ASTERISK (*) ARE NOT NWS OR FAA
     STATIONS AND ARE NOT SUBJECT TO NWS AND FAA QUALITY CONTROL.

CAZ041-042-087-290000-
LA AND ORANGE COUNTY COASTAL AREAS


CITY           SKY/WX    TMP DP  RH WIND       PRES   REMARKS
L.A. DOWNTOWN  SUNNY     79  55  43 VRB3      29.99F
L.A. AIRPORT   MOSUNNY   68  58  70 W9        30.01F
LONG BEACH     SUNNY     77  58  51 S8        30.00F

CITY           SKY/WX    TMP DP  RH WIND       PRES   REMARKS
AVALON           N/A     64 N/A N/A MISG        N/A
FULLERTON      SUNNY     81  52  36 VRB7      29.98F
*GETTY CENTER    N/A    N/A N/A N/A SW7         N/A
HAWTHORNE      SUNNY     74  57  55 W8        30.01F
*LEO CARRILLO    N/A     70  59  69 S3          N/A
*LOS ALAMITOS  FAIR      73  61  64 S9        30.00F
*REDONDO BEACH   N/A     71  60  67 W3        30.01F
SANTA ANA      MOSUNNY   75  53  46 SW7       30.00F
STA MONICA APT SUNNY     71  59  65 SW7       30.01F
*UCLA            N/A     73  52  46 S7        29.98F

$$

CAZ547-548-048-290000-
LA COUNTY VALLEYS AND INLAND EMPIRE


CITY           SKY/WX    TMP DP  RH WIND       PRES   REMARKS
BURBANK        SUNNY     85  29  13 S10       30.00F
VAN NUYS       SUNNY     85  30  13 S10       30.00F

CITY           SKY/WX    TMP DP  RH WIND       PRES   REMARKS
CORONA AIRPORT CLEAR     87  38  17 W15       29.98F
CHINO          MOSUNNY   88  38  17 W15       30.00F
MARCH AFB      SUNNY     87  34  15 NW14      30.01F
*NORTHRIDGE      N/A     86  23  10 SE6G14      N/A
ONTARIO        MOSUNNY   88  31  13 SW12      30.00F
*PASADENA        N/A     88  48  25 E2          N/A
POMONA         SUNNY     86  34  15 W12       30.03F
RIVERSIDE      SUNNY     89  24   9 W14       29.99F
SAN BERNARDINO SUNNY     88  27  11 NW9       30.00F
*SAN RAFAEL HI   N/A     86  40  19 NE8         N/A
*SAUGUS          N/A     83  29  14 S14G25      N/A
*WHITEMAN AP   NOT AVBL
*WOODLAND HILL   N/A     86  23  10 SE7         N/A

$$

CAZ054-055-290000-
LA AND SAN BERNARDINO COUNTY MOUNTAINS


CITY           SKY/WX    TMP DP  RH WIND       PRES   REMARKS
*BIG BEAR AIRP CLEAR     66   9  10 W12       30.28S
MT WILSON NWS    N/A     70  39  32 SW10        N/A
SANDBERG       SUNNY     73  35  25 N9        30.17F

$$

CAZ028-029-059-060-099-290000-
ANTELOPE VALLEY AND SURROUNDING AREAS


CITY           SKY/WX    TMP DP  RH WIND       PRES   REMARKS
LANCASTER      SUNNY     83  25  12 SW18      30.04F
PALMDALE       SUNNY     84  22  10 W20       30.04F
*POPPY PARK      N/A     85  32  15 S14G26      N/A

CITY           SKY/WX    TMP DP  RH WIND       PRES   REMARKS
29 PALMS       SUNNY     90  19   7 SE6       30.05F
BARSTOW/DAGGET SUNNY     92  10   5 W15G21    29.96F
BISHOP         SUNNY     84   4   5 VRB5      30.04F
CHINA LAKE     SUNNY     89  23   9 SE8       29.97F
EDWARDS AFB    MOSUNNY   87  13   6 W15G21    30.00F
MOJAVE         FAIR      84  34  16 W13       30.04F
NEEDLES        SUNNY     96  17   5 S8        29.91F
VICTORVILLE    SUNNY     86  21   9 S3        30.04F

$$

CAZ039-040-290000-
VENTURA AND SANTA BARBARA COUNTY COAST


CITY           SKY/WX    TMP DP  RH WIND       PRES   REMARKS
CAMARILLO      SUNNY     71  57  61 SW12      30.00F
NWS OXNARD       N/A     72  57  60 CALM      30.00S
OXNARD AIRPORT SUNNY     68  57  68 W9        30.01F
*POINT MUGU    MOSUNNY   65  59  81 SW10      30.02F
SBA APT/GOLETA SUNNY     69  55  60 SW7       30.01F
*SANTA BARBARA   N/A     78  56  47 CALM      30.09S

$$

CAZ044-045-290000-
VENTURA COUNTY VALLEYS


CITY           SKY/WX    TMP DP  RH WIND       PRES   REMARKS
*SIMI VALLEY     N/A     85  51  30 SW6       29.93F
*OJAI            N/A     85  50  29 W3        29.93S
*FILLMORE        N/A     84  60  43 CALM      29.88S

$$

CAZ053-290000-
VENTURA COUNTY MOUNTAINS


CITY           SKY/WX    TMP DP  RH WIND       PRES   REMARKS
*LOCKWOOD VLY    N/A     72  34  25 MISG        N/A
*ROSE VALLEY     N/A     77  41  27 MISG        N/A

$$

CAZ034-035-036-290000-
CENTRAL COAST AND SANTA YNEZ VALLEY


CITY           SKY/WX    TMP DP  RH WIND       PRES   REMARKS
SAN LUIS OBISP SUNNY     78  45  30 NW13      29.99F
SANTA MARIA    SUNNY     73  49  42 NW12      30.02F

CITY           SKY/WX    TMP DP  RH WIND       PRES   REMARKS
*CAL POLY SLO    N/A     77  52  41 SW6G12      N/A
*LOMPOC        SUNNY     70  54  56 W13       30.04S
*PISMO BEACH     N/A     67  57  71 E2        30.02F
*SANTA YNEZ    FAIR      82  45  26 W14       30.00S

$$

CAZ037-038-051-290000-
SAN LUIS OBISPO COUNTY INTERIOR AND CUYAMA VALLEY


CITY           SKY/WX    TMP DP  RH WIND       PRES   REMARKS
*CUYAMA          N/A     77  40  27 N6        29.98F
PASO ROBLES    SUNNY     87  43  21 MISG      30.01F

$$

CAZ032-033-061-290000-
SOUTHERN DESERTS


CITY           SKY/WX    TMP DP  RH WIND       PRES   REMARKS
BLYTHE         SUNNY     96  32  10 S8        29.90F HX  90
IMPERIAL       SUNNY     98  31   9 E10       29.86F HX  92
PALM SPRINGS   SUNNY     98  18   5 CALM      29.91F HX  91
THERMAL        SUNNY     97  26   8 VRB7      29.85F HX  91

$$

ELSEWHERE ACROSS THE WESTERN UNITED STATES AND MEXICO


CITY           SKY/WX    TMP DP  RH WIND       PRES   REMARKS
DENVER, CO     MOSUNNY   76  20  12 W24G31    29.92F
GRAND CANYON,  SUNNY     72  19  13 W12G20    30.23F
HONOLULU, HI   HVY RAIN  75  70  83 N5        30.15F
KAHULUI, MAUI  MOSUNNY   82  68  61 E12       30.12F
LAKE TAHOE, CA MOSUNNY   65   9  11 VRB3      30.26F
LAS VEGAS, NV  SUNNY     90  13   6 S15       29.93F
MAMMOTH LAKES, FAIR      70   3   7 W14G20    30.24S
MEXICO CITY, M CLOUDY    57  48  72 NE17      30.33F
PHOENIX, AZ    SUNNY     93  12   5 N7        29.94F
PORTLAND, OR   PTSUNNY   60  42  51 S8        30.37F
RENO, NV       PTSUNNY   70  13  11 VRB6      30.22F
SALT LAKE CITY PTSUNNY   70  24  17 N17       30.11R
SAN DIEGO, CA  MOSUNNY   70  58  65 NW12      30.03S
SAN FRANCISCO, MOSUNNY   70  47  43 W20       30.10F
SAN JOSE, CA   MOSUNNY   76  45  33 NW15      30.07F
SEATTLE, WA    CLOUDY    57  43  59 SW13G22   30.33F
TIJUANA, MEX   MOSUNNY   73  54  49 W10       30.04F

$$

STATION/POSITION TIME  TEMP    WIND        PRES    VSBY  WAVE
                       AIR SEA DIR/SP/G                  HT/PER
                 (UTC) (F)     (DEG/KT/KT) (MB)    (MI)  (FT/S)
POINT ARGUELLO B NOT AVBL
WEST SANTA BARBA 2300   58 59  310/ 16/ 19 1016.2F         7/ 8
POINT CONCEPTION NOT AVBL
EAST SANTA BARBA NOT AVBL
SANTA MONICA BAY 2300   62 65  190/  6/  6 1016.4F         4/17


USA.gov is the U.S. government's official web portal to all federal, state and local government web resources and services.